Regional Weather Roundup
Issued by NWS

Home | Current Version | Previous Version | Graphics & Text | Print | Product List | Glossary On
Versions: 1 2 3 4 5 6 7 8 9 10 11 12 13 14 15 16 17 18 19 20 21 22 23 24 25 26 27 28 29 30 31 32 33 34 35 36 37 38 39 40 41 42 43 44 45 46 47 48 49 50
000
ASUS45 KABQ 271510
RWRNM
NEW MEXICO REGIONAL WEATHER ROUNDUP
NATIONAL WEATHER SERVICE ALBUQUERQUE NM
900 AM MDT THU APR 27 2017

NOTE: "FAIR" MEANS FEW OR NO CLOUDS BELOW 12,000 FEET AGL WITH NO
       SIGNIFICANT WEATHER OR OBSTRUCTIONS TO VISION.

      THIS PRODUCT IS RELEASED AS TWO VERSIONS.  ONE VERSION NEAR
      THE TOP OF THE HOUR CONTAINING PRELIMINARY DATA FROM ALBUQUERQUE
      AND OTHER STATIONS.  A FINAL VERSION WITH ADDITIONAL DATA IS
      ISSUED ABOUT 10 MINUTES AFTER THE HOUR.

NMZ501-503-504-510>518-271600-
NORTHWEST PLATEAU/NORTHCENTRAL MOUNTAINS

CITY           SKY/WX    TMP DP  RH WIND       PRES   REMARKS
FARMINGTON     PTSUNNY   47  42  83 CALM      29.72S
LOS ALAMOS     FAIR      45  36  71 E6        29.76S
SANTA FE       FAIR      54  34  46 W10       29.72F
TAOS             N/A     37  28  70 S7        29.75F WCI  32
ANGEL FIRE     LGT SNOW  33  31  94 S9        29.76S WCI  25

$$
NMZ402-403-502-505>509-271600-
WESTCENTRAL MOUNTAINS/SOUTHWEST MOUNTAINS

CITY           SKY/WX    TMP DP  RH WIND       PRES   REMARKS
GALLUP         PTSUNNY   53  28  38 SW25G33   29.79F
GRANTS         PTSUNNY   55  27  34 W30G39    29.80S
SILVER CITY    FAIR      61  27  28 W10       29.86R

$$
NMZ407-409-411-412-271600-
SOUTHERN DESERTS

CITY           SKY/WX    TMP DP  RH WIND       PRES   REMARKS
DEMING         FAIR      66  28  24 W14       29.80S
LAS CRUCES     FAIR      68  24  19 W12       29.80F
HOLLOMAN AFB   FAIR      72  25  17 S14G22    29.77F
ALAMOGORDO     FAIR      70  28  21 S13G22    29.76F
T OR C         FAIR      60  28  29 CALM      29.75S

$$
NMZ519>523-271600-
CENTRAL VALLEYS/CENTRAL HIGHLANDS

CITY           SKY/WX    TMP DP  RH WIND       PRES   REMARKS
ALBUQUERQUE    FAIR      60  26  27 W16G25    29.72F
DOUBLE EAGLE   PTSUNNY   57  30  35 SW17G24   29.74F
MORIARTY ARPT  FAIR      59  27  29 W26G35    29.75F
CLINES CORNERS FAIR      52  25  35 W30G39    29.75F
BELEN          PTSUNNY   59  25  26 SW7       29.75F
SOCORRO        FAIR      65  25  21 S6        29.75R

$$
NMZ524>526-539-540-271600-
SOUTHCENTRAL MOUNTAINS

CITY           SKY/WX    TMP DP  RH WIND       PRES   REMARKS
RUIDOSO        FAIR      57  21  24 SW31      29.82F

$$
NMZ527>531-271600-
NORTHEAST HIGHLANDS/NORTHEAST PLAINS

CITY           SKY/WX    TMP DP  RH WIND       PRES   REMARKS
LAS VEGAS      FAIR      55  29  36 W25G32    29.70S
RATON          FAIR      43  33  68 S5        29.62S
CLAYTON        FAIR      48  39  71 SW12      29.58F

$$
NMZ532>537-271600-
EASTCENTRAL PLAINS

CITY           SKY/WX    TMP DP  RH WIND       PRES   REMARKS
SANTA ROSA     FAIR      64  27  25 W18G28    29.65F
TUCUMCARI      FAIR      61  35  37 W13       29.60F
CANNON AFB     FAIR      57  32  38 SW7       29.67F
CLOVIS AIRPORT FAIR      55  34  44 S9        29.67F

$$
NMZ028-029-538-271600-
SOUTHEAST PLAINS

CITY           SKY/WX    TMP DP  RH WIND       PRES   REMARKS
ROSWELL        FAIR      71  29  21 SE7       29.67F
ARTESIA        FAIR      77  28  16 SW20      29.67F
CARLSBAD       FAIR      78  25  14 W21G28    29.68F
HOBBS          SUNNY     66  30  26 S9        29.71F


$$




USA.gov is the U.S. government's official web portal to all federal, state and local government web resources and services.